Tracking 25620 objects as of 18-May-2022
HD Live streaming from Space Station
objects crossing your sky now

SL-8 DEB

Track SL-8 DEB now!
10-day predictions


NORAD ID: 1591
Int'l Code: 1965-073H
Perigee: 1,380.9 km
Apogee: 1,626.8 km
Inclination: 56.1 °
Period: 115.9 minutes
Semi major axis: 7874 km
RCS: 0.0613 m2 (small)
Launch date: September 18, 1965
Source: Commonwealth of Independent States (former USSR) (CIS)
Launch site: TYURATAM MISSILE AND SPACE COMPLEX (TTMTR)

Note: This is SATELLITE DEBRIS
aabbcc
Your satellite tracking list
Your tracking list is empty




NASA's NSSDC Master Catalog

Two Line Element Set (TLE):
1 01591U 65073H   22137.81786794 -.00000028  00000-0  45476-3 0  9992
2 01591  56.0559 160.4962 0156169 146.6683  27.9720 12.42341144563331
Source of the keplerian elements: AFSPC